TISXTNCM

Guest
Details From TISX - St Croix - Henry E Rohlsen
To TNCM - St Maarten - Princess Juliana Intl
Flight Number -
Tags generated
Created
Modified
Stats Distance 99 nm / 183 km
Max Altitude 6,900 ft / 2,103 m
Waypoints 4
Social Downloads 0
Likes 0
Share VATSIM

Download

Looking for another format? Having issues loading an existing format? Contact us
Advertisement - Login to hide

Notes

Basic altitude profile: - Ascent Rate: 1500ft/min - Ascent Speed: 225kts - Cruise Altitude: 16000ft - Cruise Speed: 250kts - Descent Rate: 1500ft/min - Descent Speed: 165kts Options: - Use NATs: yes - Use PACOTS: yes - Use low airways: yes - Use high airways: yes

Route

TISX GOUDA R760 PJM TNCM

ID Type Via Altitude Latitude Longitude Leg Dist Tot Dist Heading (true) Name
O TISX APT - 0 ft / 0 m 17.70151˚ -64.80197˚ - 0 nm - St Croix - Henry E Rohlsen
GOUDA FIX - 6,900 ft / 2,103 m 17.93402˚ -63.66667˚ 66 nm 66 nm 78° / 78° -
PJM VOR R760 (AWY-LO) 3,000 ft / 914 m 18.03811˚ -63.11828˚ 31 nm 98 nm 79° / 79° ST MAARTEN VOR-DME
O TNCM APT - 0 ft / 0 m 18.04089˚ -63.10897˚ 0 nm 98 nm 73° / 73° St Maarten - Princess Juliana Intl

Altitude Profile

Advertisement - Login to hide

TISX

Details ICAO TISX (STX)
Name St Croix - Henry E Rohlsen
Region USA (U.S. Virgin Islands)
Timezone America/St_Thomas (UTC-4.0)
Stats Elevation 65 ft / 20 m (AMSL)
Location 17.701505° -64.801975°
Runways 1
Magnetic Variation 13.695° W

METAR

TISX 260353Z AUTO 08010KT 10SM FEW023 26/23 A3003

Decode

TAF

TAF TISX 252339Z 2600/2624 09010KT P6SM FEW025 SCT050 FM260800 09010KT P6SM VCSH SCT025 SCT040 FM261300 11014KT P6SM SCT035

Decode

Departure Runways

ID Width Length Bearing (true) Bearing (mag) Surface Threshold Offset Overrun Length
10 151 ft / 46 m 9,969 ft / 3,039 m 83.93° 97.62° Asphalt 0 ft / 0 m 200 ft / 61 m
28 151 ft / 46 m 9,969 ft / 3,039 m 263.93° 277.62° Asphalt 984 ft / 300 m 200 ft / 61 m

TNCM

Details ICAO TNCM (SXM)
Name St Maarten - Princess Juliana Intl
Region Caribbean Netherlands, Aruba, Curaçao, Sint Maarten
Timezone Unknown (UTC+0.0)
Stats Elevation 12 ft / 4 m (AMSL)
Location 18.040889° -63.108974°
Runways 1
Magnetic Variation 14.337° W

METAR

TNCM 260400Z 08010KT 050V120 9999 FEW018 26/21 Q1017 A3003

Decode

TAF

TNCM 252339Z 2600/2624 09010KT P6SM FEW018 FEW030 FM260600 08006KT P6SM VCSH SCT018 SCT030 FM261400 11014KT P6SM SCT022

Decode

Destination Runways

ID Width Length Bearing (true) Bearing (mag) Surface Threshold Offset Overrun Length
10 148 ft / 45 m 7,464 ft / 2,275 m 81.43° 95.77° Asphalt 0 ft / 0 m 151 ft / 46 m
28 148 ft / 45 m 7,464 ft / 2,275 m 261.44° 275.78° Asphalt 397 ft / 121 m 0 ft / 0 m

Popular Alternatives